Wetterdaten Frühling 2017

Datum T max T min Regen
01.03.2017 8.3 °C 2.6 °C 3.8 mm
02.03.2017 9.5 °C 1.9 °C 2 mm
03.03.2017 11.6 °C 0.3 °C 0 mm
04.03.2017 16.2 °C 0.1 °C 1 mm
05.03.2017 11.8 °C 4.8 °C 0.8 mm
06.03.2017 10.4 °C 4.1 °C 1.6 mm
07.03.2017 8 °C 2.5 °C 1.6 mm
08.03.2017 9.7 °C 0.9 °C 4.8 mm
09.03.2017 10.6 °C 8.8 °C 10.2 mm
10.03.2017 11.6 °C 1.3 °C 0 mm
11.03.2017 13.9 °C -0.7 °C 0.2 mm
12.03.2017 14.6 °C -0.7 °C 0 mm
13.03.2017 11.5 °C -0.1 °C 0 mm
14.03.2017 14.8 °C -0.5 °C 0 mm
15.03.2017 14.4 °C 0.9 °C 0 mm
16.03.2017 18.5 °C 2 °C 0 mm
17.03.2017 18.7 °C 2.4 °C 0 mm
18.03.2017 10.8 °C 6.9 °C 12.2 mm
19.03.2017 14.5 °C 10.2 °C 0.4 mm
20.03.2017 14.7 °C 9.4 °C 0 mm
21.03.2017 13.1 °C 4.3 °C 6.2 mm
22.03.2017 8.3 °C 3.9 °C 2 mm
23.03.2017 15.3 °C 5 °C 0 mm
24.03.2017 11.3 °C 4.8 °C 0 mm
25.03.2017 15.8 °C 4.3 °C 0 mm
26.03.2017 15.4 °C 3.4 °C 0 mm
27.03.2017 18.6 °C 0.1 °C 0 mm
28.03.2017 20.3 °C 1.7 °C 0 mm
29.03.2017 18.8 °C 7.4 °C 0 mm
30.03.2017 20.3 °C 5.4 °C 0 mm
31.03.2017 24.3 °C 6.8 °C 0 mm
01.04.2017 19.6 °C 6.4 °C 0 mm
02.04.2017 16.9 °C 8.3 °C 0 mm
03.04.2017 18.3 °C 7.8 °C 0 mm
04.04.2017 16.4 °C 5.1 °C 0.4 mm
05.04.2017 15.5 °C 2.4 °C 0 mm
06.04.2017 10.8 °C 4.2 °C 0 mm
07.04.2017 14.1 °C 1.9 °C 0 mm
08.04.2017 17.9 °C 2.6 °C 0 mm
09.04.2017 21.1 °C 3.1 °C 0 mm
10.04.2017 23.9 °C 6.4 °C 0 mm
11.04.2017 13.9 °C 5.1 °C 0 mm
12.04.2017 18.1 °C 2.8 °C 0 mm
13.04.2017 14.7 °C 9 °C 0 mm
14.04.2017 14.8 °C 7.6 °C 0 mm
15.04.2017 14.4 °C 8.2 °C 1.6 mm
16.04.2017 10.6 °C 6.1 °C 1.2 mm
17.04.2017 9.8 °C 4.2 °C 2.4 mm
18.04.2017 7.8 °C 0.8 °C 3.4 mm
19.04.2017 6.8 °C -0.8 °C 1.2 mm
20.04.2017 9.8 °C -3.4 °C 0 mm
21.04.2017 15 °C -1.4 °C 0 mm
22.04.2017 12.6 °C 5.4 °C 0.8 mm
23.04.2017 10.9 °C 1.9 °C 0 mm
24.04.2017 17.5 °C -1.1 °C 0 mm
25.04.2017 14.2 °C 3.9 °C 1.6 mm
26.04.2017 7.6 °C 2.8 °C 4.8 mm
27.04.2017 8.3 °C 3.1 °C 7.4 mm
28.04.2017 12.6 °C 4.4 °C 0.4 mm
29.04.2017 14.8 °C 3.9 °C 0 mm
30.04.2017 18.1 °C 1 °C 0 mm
01.05.2017 9.8 °C 5.2 °C 7.6 mm
02.05.2017 15.5 °C 6.8 °C 5.4 mm
03.05.2017 15.2 °C 7.4 °C 3.2 mm
04.05.2017 15.9 °C 4.6 °C 6.6 mm
05.05.2017 16.3 °C 6.8 °C 0 mm
06.05.2017 20.9 °C 4.5 °C 0.6 mm
07.05.2017 13.7 °C 11.3 °C 6.4 mm
08.05.2017 11.3 °C 6.4 °C 8.6 mm
09.05.2017 13.3 °C 5 °C 0.2 mm
10.05.2017 20 °C 1.7 °C 0 mm
11.05.2017 23 °C 6.3 °C 0.4 mm
12.05.2017 20.1 °C 12.2 °C 9 mm
13.05.2017 21.4 °C 10.8 °C 0.8 mm
14.05.2017 21.7 °C 13 °C 0 mm
15.05.2017 22.4 °C 11.4 °C 0.2 mm
16.05.2017 25.7 °C 8.2 °C 0 mm
17.05.2017 27.6 °C 10.6 °C 0 mm
18.05.2017 24.2 °C 14.2 °C 0.8 mm
19.05.2017 17.3 °C 8.6 °C 7.6 mm
20.05.2017 16.9 °C 5.3 °C 0 mm
21.05.2017 21.8 °C 5.3 °C 0 mm
22.05.2017 24.1 °C 12.6 °C 0 mm
23.05.2017 25.8 °C 11.2 °C 0 mm
24.05.2017 21.6 °C 13.1 °C 0 mm
25.05.2017 23.3 °C 13.9 °C 0 mm
26.05.2017 26.7 °C 9.8 °C 0 mm
27.05.2017 29.7 °C 11.2 °C 0 mm
28.05.2017 31.7 °C 13.6 °C 0 mm
29.05.2017 31.4 °C 16.8 °C 0.2 mm
30.05.2017 28.3 °C 18 °C 1.8 mm
31.05.2017 25.7 °C 16.5 °C 0 mm
 Hinweis zur Datenqualität
∅ Temperatur

10.9 °C

Abweichung vom Mittel

+0.8 °C

Niederschlag

131.4 mm

Abweichung vom Mittel

75 %

31.7 °C

Lufttemperatur
28.05.2017

1035 hPa

Luftdruck
20.04.2017

30.6 km/h

Windböen
30.04.2017

131.4 mm

Niederschlag
 

-3.4 °C

Lufttemperatur
20.04.2017

-2.3 °C

Bodentemperatur 5cm
20.04.2017

989 hPa

Luftdruck
04.03.2017
 Hinweis zur Datenqualität